owner,sensor,date,latitude,longitude,vertical_datum,sea_water_practical_salinity,qcFlag 
LUMCON,ioos:station:LUMCON:101:1,2016-05-01T00:00:00Z,29.2533,-90.6633,1.5,12.01,1111122 
LUMCON,ioos:station:LUMCON:101:1,2016-05-01T00:15:00Z,29.2533,-90.6633,1.49,11.95,1111122 
LUMCON,ioos:station:LUMCON:101:1,2016-05-01T00:30:00Z,29.2533,-90.6633,1.48,11.89,1111122 
LUMCON,ioos:station:LUMCON:101:1,2016-05-01T00:45:00Z,29.2533,-90.6633,1.48,11.74,1111122 
LUMCON,ioos:station:LUMCON:101:1,2016-05-01T01:00:00Z,29.2533,-90.6633,1.48,11.71,1111122 
LUMCON,ioos:station:LUMCON:101:1,2016-05-01T01:15:00Z,29.2533,-90.6633,1.48,11.66,1111122 
LUMCON,ioos:station:LUMCON:101:1,2016-05-01T01:30:00Z,29.2533,-90.6633,1.47,11.64,1111122 
LUMCON,ioos:station:LUMCON:101:1,2016-05-01T01:45:00Z,29.2533,-90.6633,1.46,11.61,1111122 
LUMCON,ioos:station:LUMCON:101:1,2016-05-01T02:00:00Z,29.2533,-90.6633,1.45,11.56,1111122 
LUMCON,ioos:station:LUMCON:101:1,2016-05-01T02:15:00Z,29.2533,-90.6633,1.47,11.56,1111122 
LUMCON,ioos:station:LUMCON:101:1,2016-05-01T02:30:00Z,29.2533,-90.6633,1.47,11.57,1111122 
LUMCON,ioos:station:LUMCON:101:1,2016-05-01T02:45:00Z,29.2533,-90.6633,1.47,11.68,1111122 
LUMCON,ioos:station:LUMCON:101:1,2016-05-01T03:00:00Z,29.2533,-90.6633,1.48,11.71,1111122 
LUMCON,ioos:station:LUMCON:101:1,2016-05-01T03:15:00Z,29.2533,-90.6633,1.49,11.79,1111122 
LUMCON,ioos:station:LUMCON:101:1,2016-05-01T03:30:00Z,29.2533,-90.6633,1.49,11.9,1111122 
LUMCON,ioos:station:LUMCON:101:1,2016-05-01T03:45:00Z,29.2533,-90.6633,1.5,12.02,1111122 
LUMCON,ioos:station:LUMCON:101:1,2016-05-01T04:00:00Z,29.2533,-90.6633,1.5,12.11,1111122 
LUMCON,ioos:station:LUMCON:101:1,2016-05-01T04:15:00Z,29.2533,-90.6633,1.5,12.14,1111122 
LUMCON,ioos:station:LUMCON:101:1,2016-05-01T04:30:00Z,29.2533,-90.6633,1.5,12.18,1111122 
LUMCON,ioos:station:LUMCON:101:1,2016-05-01T04:45:00Z,29.2533,-90.6633,1.49,12.18,1111122 
LUMCON,ioos:station:LUMCON:101:1,2016-05-01T05:00:00Z,29.2533,-90.6633,1.47,12.14,1111122 
LUMCON,ioos:station:LUMCON:101:1,2016-05-01T05:15:00Z,29.2533,-90.6633,1.45,12.17,1111122 
LUMCON,ioos:station:LUMCON:101:1,2016-05-01T05:30:00Z,29.2533,-90.6633,1.45,12.09,1111122 
LUMCON,ioos:station:LUMCON:101:1,2016-05-01T05:45:00Z,29.2533,-90.6633,1.44,12.01,1111122 
LUMCON,ioos:station:LUMCON:101:1,2016-05-01T06:00:00Z,29.2533,-90.6633,1.44,11.99,1111122 
LUMCON,ioos:station:LUMCON:101:1,2016-05-01T06:15:00Z,29.2533,-90.6633,1.44,11.88,1111122 
LUMCON,ioos:station:LUMCON:101:1,2016-05-01T06:30:00Z,29.2533,-90.6633,1.43,11.74,1111122 
LUMCON,ioos:station:LUMCON:101:1,2016-05-01T06:45:00Z,29.2533,-90.6633,1.43,11.64,1111122 
LUMCON,ioos:station:LUMCON:101:1,2016-05-01T07:00:00Z,29.2533,-90.6633,1.42,11.6,1111122 
LUMCON,ioos:station:LUMCON:101:1,2016-05-01T07:15:00Z,29.2533,-90.6633,1.41,11.58,1111122 
LUMCON,ioos:station:LUMCON:101:1,2016-05-01T07:30:00Z,29.2533,-90.6633,1.41,11.5,1111122 
LUMCON,ioos:station:LUMCON:101:1,2016-05-01T07:45:00Z,29.2533,-90.6633,1.4,11.43,1111122 
LUMCON,ioos:station:LUMCON:101:1,2016-05-01T08:00:00Z,29.2533,-90.6633,1.4,11.34,1111122 
LUMCON,ioos:station:LUMCON:101:1,2016-05-01T08:15:00Z,29.2533,-90.6633,1.4,11.27,1111122 
LUMCON,ioos:station:LUMCON:101:1,2016-05-01T08:30:00Z,29.2533,-90.6633,1.4,11.23,1111122 
LUMCON,ioos:station:LUMCON:101:1,2016-05-01T08:45:00Z,29.2533,-90.6633,1.4,11.2,1111122 
LUMCON,ioos:station:LUMCON:101:1,2016-05-01T09:00:00Z,29.2533,-90.6633,1.4,11.17,1111122 
LUMCON,ioos:station:LUMCON:101:1,2016-05-01T09:15:00Z,29.2533,-90.6633,1.4,11.15,1111122 
LUMCON,ioos:station:LUMCON:101:1,2016-05-01T09:30:00Z,29.2533,-90.6633,1.39,11.12,1111122 
LUMCON,ioos:station:LUMCON:101:1,2016-05-01T09:45:00Z,29.2533,-90.6633,1.39,11.07,1111122 
LUMCON,ioos:station:LUMCON:101:1,2016-05-01T10:00:00Z,29.2533,-90.6633,1.38,11.0,1111122 
LUMCON,ioos:station:LUMCON:101:1,2016-05-01T10:15:00Z,29.2533,-90.6633,1.37,10.94,1111122 
LUMCON,ioos:station:LUMCON:101:1,2016-05-01T10:30:00Z,29.2533,-90.6633,1.36,10.89,1111122 
LUMCON,ioos:station:LUMCON:101:1,2016-05-01T10:45:00Z,29.2533,-90.6633,1.36,10.84,1111122 
LUMCON,ioos:station:LUMCON:101:1,2016-05-01T11:00:00Z,29.2533,-90.6633,1.35,10.74,1111122 
LUMCON,ioos:station:LUMCON:101:1,2016-05-01T11:15:00Z,29.2533,-90.6633,1.35,10.67,1111122 
LUMCON,ioos:station:LUMCON:101:1,2016-05-01T11:30:00Z,29.2533,-90.6633,1.35,10.58,1111122 
LUMCON,ioos:station:LUMCON:101:1,2016-05-01T11:45:00Z,29.2533,-90.6633,1.35,10.53,1111122 
LUMCON,ioos:station:LUMCON:101:1,2016-05-01T12:00:00Z,29.2533,-90.6633,1.35,10.51,1111122 
LUMCON,ioos:station:LUMCON:101:1,2016-05-01T12:15:00Z,29.2533,-90.6633,1.36,10.51,1111122 
LUMCON,ioos:station:LUMCON:101:1,2016-05-01T12:30:00Z,29.2533,-90.6633,1.36,10.5,1111122 
LUMCON,ioos:station:LUMCON:101:1,2016-05-01T12:45:00Z,29.2533,-90.6633,1.36,10.51,1111122 
LUMCON,ioos:station:LUMCON:101:1,2016-05-01T13:00:00Z,29.2533,-90.6633,1.37,10.6,1111122 
LUMCON,ioos:station:LUMCON:101:1,2016-05-01T13:15:00Z,29.2533,-90.6633,1.37,11.07,1111122 
LUMCON,ioos:station:LUMCON:101:1,2016-05-01T13:30:00Z,29.2533,-90.6633,1.38,11.19,1111122 
LUMCON,ioos:station:LUMCON:101:1,2016-05-01T13:45:00Z,29.2533,-90.6633,1.39,11.27,1111122 
LUMCON,ioos:station:LUMCON:101:1,2016-05-01T14:00:00Z,29.2533,-90.6633,1.4,11.13,1111122 
LUMCON,ioos:station:LUMCON:101:1,2016-05-01T14:15:00Z,29.2533,-90.6633,1.41,11.23,1111122 
LUMCON,ioos:station:LUMCON:101:1,2016-05-01T14:30:00Z,29.2533,-90.6633,1.41,11.37,1111122 
LUMCON,ioos:station:LUMCON:101:1,2016-05-01T14:45:00Z,29.2533,-90.6633,1.42,11.43,1111122 
LUMCON,ioos:station:LUMCON:101:1,2016-05-01T15:00:00Z,29.2533,-90.6633,1.42,11.5,1111122 
LUMCON,ioos:station:LUMCON:101:1,2016-05-01T15:15:00Z,29.2533,-90.6633,1.43,11.58,1111122 
LUMCON,ioos:station:LUMCON:101:1,2016-05-01T15:30:00Z,29.2533,-90.6633,1.44,11.63,1111122 
LUMCON,ioos:station:LUMCON:101:1,2016-05-01T15:45:00Z,29.2533,-90.6633,1.44,11.67,1111122 
LUMCON,ioos:station:LUMCON:101:1,2016-05-01T16:00:00Z,29.2533,-90.6633,1.45,11.72,1111122 
LUMCON,ioos:station:LUMCON:101:1,2016-05-01T16:15:00Z,29.2533,-90.6633,1.46,11.73,1111122 
LUMCON,ioos:station:LUMCON:101:1,2016-05-01T16:30:00Z,29.2533,-90.6633,1.47,11.76,1111122 
LUMCON,ioos:station:LUMCON:101:1,2016-05-01T16:45:00Z,29.2533,-90.6633,1.48,11.77,1111122 
LUMCON,ioos:station:LUMCON:101:1,2016-05-01T17:00:00Z,29.2533,-90.6633,1.47,11.81,1111122 
LUMCON,ioos:station:LUMCON:101:1,2016-05-01T17:15:00Z,29.2533,-90.6633,1.46,11.87,1111122 
LUMCON,ioos:station:LUMCON:101:1,2016-05-01T17:30:00Z,29.2533,-90.6633,1.46,11.81,1111122 
LUMCON,ioos:station:LUMCON:101:1,2016-05-01T17:45:00Z,29.2533,-90.6633,1.46,11.83,1111122 
LUMCON,ioos:station:LUMCON:101:1,2016-05-01T18:00:00Z,29.2533,-90.6633,1.45,11.85,1111122 
LUMCON,ioos:station:LUMCON:101:1,2016-05-01T18:15:00Z,29.2533,-90.6633,1.45,11.82,1111122 
LUMCON,ioos:station:LUMCON:101:1,2016-05-01T18:30:00Z,29.2533,-90.6633,1.45,11.7,1111122 
LUMCON,ioos:station:LUMCON:101:1,2016-05-01T18:45:00Z,29.2533,-90.6633,1.47,11.54,1111122 
LUMCON,ioos:station:LUMCON:101:1,2016-05-01T19:00:00Z,29.2533,-90.6633,1.49,11.48,1111122 
LUMCON,ioos:station:LUMCON:101:1,2016-05-01T19:15:00Z,29.2533,-90.6633,1.48,11.44,1111122 
LUMCON,ioos:station:LUMCON:101:1,2016-05-01T19:30:00Z,29.2533,-90.6633,1.46,11.37,1111122 
LUMCON,ioos:station:LUMCON:101:1,2016-05-01T19:45:00Z,29.2533,-90.6633,1.43,11.29,1111122 
LUMCON,ioos:station:LUMCON:101:1,2016-05-01T20:00:00Z,29.2533,-90.6633,1.44,11.18,1111122 
LUMCON,ioos:station:LUMCON:101:1,2016-05-01T20:15:00Z,29.2533,-90.6633,1.42,11.03,1111122 
LUMCON,ioos:station:LUMCON:101:1,2016-05-01T20:30:00Z,29.2533,-90.6633,1.41,10.86,1111122 
LUMCON,ioos:station:LUMCON:101:1,2016-05-01T20:45:00Z,29.2533,-90.6633,1.4,10.72,1111122 
LUMCON,ioos:station:LUMCON:101:1,2016-05-01T21:00:00Z,29.2533,-90.6633,1.38,10.56,1111122 
LUMCON,ioos:station:LUMCON:101:1,2016-05-01T21:15:00Z,29.2533,-90.6633,1.36,10.44,1111122 
LUMCON,ioos:station:LUMCON:101:1,2016-05-01T21:30:00Z,29.2533,-90.6633,1.36,10.29,1111122 
LUMCON,ioos:station:LUMCON:101:1,2016-05-01T21:45:00Z,29.2533,-90.6633,1.36,10.15,1111122 
LUMCON,ioos:station:LUMCON:101:1,2016-05-01T22:00:00Z,29.2533,-90.6633,1.35,9.96,1111122 
LUMCON,ioos:station:LUMCON:101:1,2016-05-01T22:15:00Z,29.2533,-90.6633,1.35,9.8,1111122 
LUMCON,ioos:station:LUMCON:101:1,2016-05-01T22:30:00Z,29.2533,-90.6633,1.34,9.68,1111122 
LUMCON,ioos:station:LUMCON:101:1,2016-05-01T22:45:00Z,29.2533,-90.6633,1.33,9.55,1111122 
LUMCON,ioos:station:LUMCON:101:1,2016-05-01T23:00:00Z,29.2533,-90.6633,1.32,9.45,1111122 
LUMCON,ioos:station:LUMCON:101:1,2016-05-01T23:15:00Z,29.2533,-90.6633,1.32,9.33,1111122 
LUMCON,ioos:station:LUMCON:101:1,2016-05-01T23:30:00Z,29.2533,-90.6633,1.32,9.21,1111122 
LUMCON,ioos:station:LUMCON:101:1,2016-05-01T23:45:00Z,29.2533,-90.6633,1.31,9.2,1111122 
LUMCON,ioos:station:LUMCON:101:1,2016-05-02T00:00:00Z,29.2533,-90.6633,1.32,9.12,1111122 
LUMCON,ioos:station:LUMCON:101:1,2016-05-02T00:15:00Z,29.2533,-90.6633,1.32,9.04,1111122 
LUMCON,ioos:station:LUMCON:101:1,2016-05-02T00:30:00Z,29.2533,-90.6633,1.33,9.04,1111122 
LUMCON,ioos:station:LUMCON:101:1,2016-05-02T00:45:00Z,29.2533,-90.6633,1.33,9.02,1111122 
LUMCON,ioos:station:LUMCON:101:1,2016-05-02T01:00:00Z,29.2533,-90.6633,1.34,9.02,1111122 
LUMCON,ioos:station:LUMCON:101:1,2016-05-02T01:15:00Z,29.2533,-90.6633,1.36,9.08,1111122 
LUMCON,ioos:station:LUMCON:101:1,2016-05-02T01:30:00Z,29.2533,-90.6633,1.38,9.64,1111122 
LUMCON,ioos:station:LUMCON:101:1,2016-05-02T01:45:00Z,29.2533,-90.6633,1.39,9.53,1111122 
LUMCON,ioos:station:LUMCON:101:1,2016-05-02T02:00:00Z,29.2533,-90.6633,1.41,9.71,1111122 
LUMCON,ioos:station:LUMCON:101:1,2016-05-02T02:15:00Z,29.2533,-90.6633,1.43,9.8,1111122 
LUMCON,ioos:station:LUMCON:101:1,2016-05-02T02:30:00Z,29.2533,-90.6633,1.44,9.84,1111122 
LUMCON,ioos:station:LUMCON:101:1,2016-05-02T02:45:00Z,29.2533,-90.6633,1.46,10.12,1111122 
LUMCON,ioos:station:LUMCON:101:1,2016-05-02T03:00:00Z,29.2533,-90.6633,1.47,10.2,1111122 
LUMCON,ioos:station:LUMCON:101:1,2016-05-02T03:15:00Z,29.2533,-90.6633,1.46,10.24,1111122 
LUMCON,ioos:station:LUMCON:101:1,2016-05-02T03:30:00Z,29.2533,-90.6633,1.46,10.27,1111122 
LUMCON,ioos:station:LUMCON:101:1,2016-05-02T03:45:00Z,29.2533,-90.6633,1.47,10.28,1111122 
LUMCON,ioos:station:LUMCON:101:1,2016-05-02T04:00:00Z,29.2533,-90.6633,1.49,10.35,1111122 
LUMCON,ioos:station:LUMCON:101:1,2016-05-02T04:15:00Z,29.2533,-90.6633,1.51,10.39,1111122 
LUMCON,ioos:station:LUMCON:101:1,2016-05-02T04:30:00Z,29.2533,-90.6633,1.52,10.41,1111122 
LUMCON,ioos:station:LUMCON:101:1,2016-05-02T04:45:00Z,29.2533,-90.6633,1.51,10.42,1111122 
LUMCON,ioos:station:LUMCON:101:1,2016-05-02T05:00:00Z,29.2533,-90.6633,1.52,10.51,1111122 
LUMCON,ioos:station:LUMCON:101:1,2016-05-02T05:15:00Z,29.2533,-90.6633,1.55,10.53,1111122 
LUMCON,ioos:station:LUMCON:101:1,2016-05-02T05:30:00Z,29.2533,-90.6633,1.57,10.6,1111122 
LUMCON,ioos:station:LUMCON:101:1,2016-05-02T05:45:00Z,29.2533,-90.6633,1.59,10.6,1111122 
LUMCON,ioos:station:LUMCON:101:1,2016-05-02T06:00:00Z,29.2533,-90.6633,1.61,10.64,1111122 
LUMCON,ioos:station:LUMCON:101:1,2016-05-02T06:15:00Z,29.2533,-90.6633,1.62,10.89,1111122 
LUMCON,ioos:station:LUMCON:101:1,2016-05-02T06:30:00Z,29.2533,-90.6633,1.62,11.04,1111122 
LUMCON,ioos:station:LUMCON:101:1,2016-05-02T06:45:00Z,29.2533,-90.6633,1.63,10.95,1111122 
LUMCON,ioos:station:LUMCON:101:1,2016-05-02T07:00:00Z,29.2533,-90.6633,1.64,11.05,1111122 
LUMCON,ioos:station:LUMCON:101:1,2016-05-02T07:15:00Z,29.2533,-90.6633,1.65,11.08,1111122 
LUMCON,ioos:station:LUMCON:101:1,2016-05-02T07:30:00Z,29.2533,-90.6633,1.65,11.19,1111122 
LUMCON,ioos:station:LUMCON:101:1,2016-05-02T07:45:00Z,29.2533,-90.6633,1.66,11.36,1111122 
LUMCON,ioos:station:LUMCON:101:1,2016-05-02T08:00:00Z,29.2533,-90.6633,1.66,11.29,1111122 
LUMCON,ioos:station:LUMCON:101:1,2016-05-02T08:15:00Z,29.2533,-90.6633,1.65,11.35,1111122 
LUMCON,ioos:station:LUMCON:101:1,2016-05-02T08:30:00Z,29.2533,-90.6633,1.65,11.33,1111122 
LUMCON,ioos:station:LUMCON:101:1,2016-05-02T08:45:00Z,29.2533,-90.6633,1.64,11.35,1111122 
LUMCON,ioos:station:LUMCON:101:1,2016-05-02T09:00:00Z,29.2533,-90.6633,1.63,11.25,1111122 
LUMCON,ioos:station:LUMCON:101:1,2016-05-02T09:15:00Z,29.2533,-90.6633,1.63,11.33,1111122 
LUMCON,ioos:station:LUMCON:101:1,2016-05-02T09:30:00Z,29.2533,-90.6633,1.6,11.38,1111122 
LUMCON,ioos:station:LUMCON:101:1,2016-05-02T09:45:00Z,29.2533,-90.6633,1.59,11.25,1111122 
LUMCON,ioos:station:LUMCON:101:1,2016-05-02T10:00:00Z,29.2533,-90.6633,1.59,11.25,1111122 
LUMCON,ioos:station:LUMCON:101:1,2016-05-02T10:15:00Z,29.2533,-90.6633,1.58,11.18,1111122 
LUMCON,ioos:station:LUMCON:101:1,2016-05-02T10:30:00Z,29.2533,-90.6633,1.57,11.09,1111122 
LUMCON,ioos:station:LUMCON:101:1,2016-05-02T10:45:00Z,29.2533,-90.6633,1.55,11.15,1111122 
LUMCON,ioos:station:LUMCON:101:1,2016-05-02T11:00:00Z,29.2533,-90.6633,1.53,11.17,1111122 
LUMCON,ioos:station:LUMCON:101:1,2016-05-02T11:15:00Z,29.2533,-90.6633,1.5,11.07,1111122 
LUMCON,ioos:station:LUMCON:101:1,2016-05-02T11:30:00Z,29.2533,-90.6633,1.49,11.0,1111122 
LUMCON,ioos:station:LUMCON:101:1,2016-05-02T11:45:00Z,29.2533,-90.6633,1.48,11.09,1111122 
LUMCON,ioos:station:LUMCON:101:1,2016-05-02T12:00:00Z,29.2533,-90.6633,1.47,10.93,1111122 
LUMCON,ioos:station:LUMCON:101:1,2016-05-02T12:15:00Z,29.2533,-90.6633,1.47,10.92,1111122 
LUMCON,ioos:station:LUMCON:101:1,2016-05-02T12:30:00Z,29.2533,-90.6633,1.47,10.72,1111122 
LUMCON,ioos:station:LUMCON:101:1,2016-05-02T12:45:00Z,29.2533,-90.6633,1.46,10.66,1111122 
LUMCON,ioos:station:LUMCON:101:1,2016-05-02T13:00:00Z,29.2533,-90.6633,1.46,10.62,1111122 
LUMCON,ioos:station:LUMCON:101:1,2016-05-02T13:15:00Z,29.2533,-90.6633,1.45,10.58,1111122 
LUMCON,ioos:station:LUMCON:101:1,2016-05-02T13:30:00Z,29.2533,-90.6633,1.45,10.51,1111122 
LUMCON,ioos:station:LUMCON:101:1,2016-05-02T13:45:00Z,29.2533,-90.6633,1.44,10.32,1111122 
LUMCON,ioos:station:LUMCON:101:1,2016-05-02T14:00:00Z,29.2533,-90.6633,1.43,10.24,1111122 
LUMCON,ioos:station:LUMCON:101:1,2016-05-02T14:15:00Z,29.2533,-90.6633,1.43,10.2,1111122 
LUMCON,ioos:station:LUMCON:101:1,2016-05-02T14:30:00Z,29.2533,-90.6633,1.43,10.14,1111122 
LUMCON,ioos:station:LUMCON:101:1,2016-05-02T14:45:00Z,29.2533,-90.6633,1.43,10.08,1111122 
LUMCON,ioos:station:LUMCON:101:1,2016-05-02T15:00:00Z,29.2533,-90.6633,1.43,10.06,1111122 
LUMCON,ioos:station:LUMCON:101:1,2016-05-02T15:15:00Z,29.2533,-90.6633,1.43,9.97,1111122 
LUMCON,ioos:station:LUMCON:101:1,2016-05-02T15:30:00Z,29.2533,-90.6633,1.42,10.0,1111122 
LUMCON,ioos:station:LUMCON:101:1,2016-05-02T15:45:00Z,29.2533,-90.6633,1.42,9.85,1111122 
LUMCON,ioos:station:LUMCON:101:1,2016-05-02T16:00:00Z,29.2533,-90.6633,1.42,9.92,1111122 
LUMCON,ioos:station:LUMCON:101:1,2016-05-02T16:15:00Z,29.2533,-90.6633,1.42,9.84,1111122 
LUMCON,ioos:station:LUMCON:101:1,2016-05-02T16:30:00Z,29.2533,-90.6633,1.41,9.83,1111122 
LUMCON,ioos:station:LUMCON:101:1,2016-05-02T16:45:00Z,29.2533,-90.6633,1.4,9.78,1111122 
LUMCON,ioos:station:LUMCON:101:1,2016-05-02T17:00:00Z,29.2533,-90.6633,1.39,9.69,1111122 
LUMCON,ioos:station:LUMCON:101:1,2016-05-02T17:15:00Z,29.2533,-90.6633,1.38,9.62,1111122 
LUMCON,ioos:station:LUMCON:101:1,2016-05-02T17:30:00Z,29.2533,-90.6633,1.39,9.61,1111122 
LUMCON,ioos:station:LUMCON:101:1,2016-05-02T17:45:00Z,29.2533,-90.6633,1.39,9.65,1111122 
LUMCON,ioos:station:LUMCON:101:1,2016-05-02T18:00:00Z,29.2533,-90.6633,1.39,9.59,1111122 
LUMCON,ioos:station:LUMCON:101:1,2016-05-02T18:15:00Z,29.2533,-90.6633,1.39,9.59,1111122 
LUMCON,ioos:station:LUMCON:101:1,2016-05-02T18:30:00Z,29.2533,-90.6633,1.38,9.58,1111122 
LUMCON,ioos:station:LUMCON:101:1,2016-05-02T18:45:00Z,29.2533,-90.6633,1.37,9.58,1111122 
LUMCON,ioos:station:LUMCON:101:1,2016-05-02T19:00:00Z,29.2533,-90.6633,1.37,9.56,1111122 
LUMCON,ioos:station:LUMCON:101:1,2016-05-02T19:15:00Z,29.2533,-90.6633,1.35,9.56,1111122 
LUMCON,ioos:station:LUMCON:101:1,2016-05-02T19:30:00Z,29.2533,-90.6633,1.35,9.43,1111122 
LUMCON,ioos:station:LUMCON:101:1,2016-05-02T19:45:00Z,29.2533,-90.6633,1.33,9.4,1111122 
LUMCON,ioos:station:LUMCON:101:1,2016-05-02T20:00:00Z,29.2533,-90.6633,1.33,9.3,1111122 
LUMCON,ioos:station:LUMCON:101:1,2016-05-02T20:15:00Z,29.2533,-90.6633,1.32,9.27,1111122 
LUMCON,ioos:station:LUMCON:101:1,2016-05-02T20:30:00Z,29.2533,-90.6633,1.32,9.25,1111122 
LUMCON,ioos:station:LUMCON:101:1,2016-05-02T20:45:00Z,29.2533,-90.6633,1.32,9.21,1111122 
LUMCON,ioos:station:LUMCON:101:1,2016-05-02T21:00:00Z,29.2533,-90.6633,1.31,9.14,1111122 
LUMCON,ioos:station:LUMCON:101:1,2016-05-02T21:15:00Z,29.2533,-90.6633,1.3,9.19,1111122 
LUMCON,ioos:station:LUMCON:101:1,2016-05-02T21:30:00Z,29.2533,-90.6633,1.3,9.06,1111122 
LUMCON,ioos:station:LUMCON:101:1,2016-05-02T21:45:00Z,29.2533,-90.6633,1.31,9.06,1111122 
LUMCON,ioos:station:LUMCON:101:1,2016-05-02T22:00:00Z,29.2533,-90.6633,1.3,9.05,1111122 
LUMCON,ioos:station:LUMCON:101:1,2016-05-02T22:15:00Z,29.2533,-90.6633,1.29,9.02,1111122 
LUMCON,ioos:station:LUMCON:101:1,2016-05-02T22:30:00Z,29.2533,-90.6633,1.29,9.01,1111122 
LUMCON,ioos:station:LUMCON:101:1,2016-05-02T22:45:00Z,29.2533,-90.6633,1.26,9.03,1111122 
LUMCON,ioos:station:LUMCON:101:1,2016-05-02T23:00:00Z,29.2533,-90.6633,1.26,9.0,1111122 
LUMCON,ioos:station:LUMCON:101:1,2016-05-02T23:15:00Z,29.2533,-90.6633,1.27,8.97,1111122 
LUMCON,ioos:station:LUMCON:101:1,2016-05-02T23:30:00Z,29.2533,-90.6633,1.26,8.93,1111122 
LUMCON,ioos:station:LUMCON:101:1,2016-05-02T23:45:00Z,29.2533,-90.6633,1.26,8.9,1111122 
LUMCON,ioos:station:LUMCON:101:1,2016-05-03T00:00:00Z,29.2533,-90.6633,1.27,8.95,1111122 
LUMCON,ioos:station:LUMCON:101:1,2016-05-03T00:15:00Z,29.2533,-90.6633,1.3,8.99,1111122 
LUMCON,ioos:station:LUMCON:101:1,2016-05-03T00:30:00Z,29.2533,-90.6633,1.34,8.99,1111122 
LUMCON,ioos:station:LUMCON:101:1,2016-05-03T00:45:00Z,29.2533,-90.6633,1.36,9.36,1111122 
LUMCON,ioos:station:LUMCON:101:1,2016-05-03T01:00:00Z,29.2533,-90.6633,1.38,9.27,1111122 
LUMCON,ioos:station:LUMCON:101:1,2016-05-03T01:15:00Z,29.2533,-90.6633,1.41,9.16,1111122 
LUMCON,ioos:station:LUMCON:101:1,2016-05-03T01:30:00Z,29.2533,-90.6633,1.41,9.32,1111122 
LUMCON,ioos:station:LUMCON:101:1,2016-05-03T01:45:00Z,29.2533,-90.6633,1.42,9.44,1111122 
LUMCON,ioos:station:LUMCON:101:1,2016-05-03T02:00:00Z,29.2533,-90.6633,1.43,9.64,1111122 
LUMCON,ioos:station:LUMCON:101:1,2016-05-03T02:15:00Z,29.2533,-90.6633,1.42,9.75,1111122 
LUMCON,ioos:station:LUMCON:101:1,2016-05-03T02:30:00Z,29.2533,-90.6633,1.42,9.78,1111122 
LUMCON,ioos:station:LUMCON:101:1,2016-05-03T02:45:00Z,29.2533,-90.6633,1.4,9.75,1111122 
LUMCON,ioos:station:LUMCON:101:1,2016-05-03T03:00:00Z,29.2533,-90.6633,1.39,9.83,1111122 
LUMCON,ioos:station:LUMCON:101:1,2016-05-03T03:15:00Z,29.2533,-90.6633,1.39,9.69,1111122 
LUMCON,ioos:station:LUMCON:101:1,2016-05-03T03:30:00Z,29.2533,-90.6633,1.39,9.73,1111122 
LUMCON,ioos:station:LUMCON:101:1,2016-05-03T03:45:00Z,29.2533,-90.6633,1.37,9.76,1111122 
LUMCON,ioos:station:LUMCON:101:1,2016-05-03T04:00:00Z,29.2533,-90.6633,1.38,9.52,1111122 
LUMCON,ioos:station:LUMCON:101:1,2016-05-03T04:15:00Z,29.2533,-90.6633,1.37,9.49,1111122 
LUMCON,ioos:station:LUMCON:101:1,2016-05-03T04:30:00Z,29.2533,-90.6633,1.36,9.38,1111122 
LUMCON,ioos:station:LUMCON:101:1,2016-05-03T04:45:00Z,29.2533,-90.6633,1.36,9.27,1111122 
LUMCON,ioos:station:LUMCON:101:1,2016-05-03T05:00:00Z,29.2533,-90.6633,1.37,9.33,1111122 
LUMCON,ioos:station:LUMCON:101:1,2016-05-03T05:15:00Z,29.2533,-90.6633,1.37,9.29,1111122 
LUMCON,ioos:station:LUMCON:101:1,2016-05-03T05:30:00Z,29.2533,-90.6633,1.38,9.3,1111122 
LUMCON,ioos:station:LUMCON:101:1,2016-05-03T05:45:00Z,29.2533,-90.6633,1.39,9.25,1111122 
LUMCON,ioos:station:LUMCON:101:1,2016-05-03T06:00:00Z,29.2533,-90.6633,1.39,9.27,1111122 
LUMCON,ioos:station:LUMCON:101:1,2016-05-03T06:15:00Z,29.2533,-90.6633,1.37,9.3,1111122 
LUMCON,ioos:station:LUMCON:101:1,2016-05-03T06:30:00Z,29.2533,-90.6633,1.36,9.29,1111122 
LUMCON,ioos:station:LUMCON:101:1,2016-05-03T06:45:00Z,29.2533,-90.6633,1.34,9.3,1111122 
LUMCON,ioos:station:LUMCON:101:1,2016-05-03T07:00:00Z,29.2533,-90.6633,1.33,9.25,1111122 
LUMCON,ioos:station:LUMCON:101:1,2016-05-03T07:15:00Z,29.2533,-90.6633,1.32,9.18,1111122 
LUMCON,ioos:station:LUMCON:101:1,2016-05-03T07:30:00Z,29.2533,-90.6633,1.31,9.13,1111122 
LUMCON,ioos:station:LUMCON:101:1,2016-05-03T07:45:00Z,29.2533,-90.6633,1.3,9.12,1111122 
LUMCON,ioos:station:LUMCON:101:1,2016-05-03T08:00:00Z,29.2533,-90.6633,1.3,9.0,1111122 
LUMCON,ioos:station:LUMCON:101:1,2016-05-03T08:15:00Z,29.2533,-90.6633,1.29,8.94,1111122 
LUMCON,ioos:station:LUMCON:101:1,2016-05-03T08:30:00Z,29.2533,-90.6633,1.29,9.0,1111122 
LUMCON,ioos:station:LUMCON:101:1,2016-05-03T08:45:00Z,29.2533,-90.6633,1.28,8.9,1111122 
LUMCON,ioos:station:LUMCON:101:1,2016-05-03T09:00:00Z,29.2533,-90.6633,1.27,8.88,1111122 
LUMCON,ioos:station:LUMCON:101:1,2016-05-03T09:15:00Z,29.2533,-90.6633,1.27,8.88,1111122 
LUMCON,ioos:station:LUMCON:101:1,2016-05-03T09:30:00Z,29.2533,-90.6633,1.27,8.88,1111122 
LUMCON,ioos:station:LUMCON:101:1,2016-05-03T09:45:00Z,29.2533,-90.6633,1.28,8.86,1111122 
LUMCON,ioos:station:LUMCON:101:1,2016-05-03T10:00:00Z,29.2533,-90.6633,1.29,8.79,1111122 
LUMCON,ioos:station:LUMCON:101:1,2016-05-03T10:15:00Z,29.2533,-90.6633,1.29,8.76,1111122 
LUMCON,ioos:station:LUMCON:101:1,2016-05-03T10:30:00Z,29.2533,-90.6633,1.29,8.64,1111122 
LUMCON,ioos:station:LUMCON:101:1,2016-05-03T10:45:00Z,29.2533,-90.6633,1.29,8.73,1111122 
LUMCON,ioos:station:LUMCON:101:1,2016-05-03T11:00:00Z,29.2533,-90.6633,1.29,8.69,1111122 
LUMCON,ioos:station:LUMCON:101:1,2016-05-03T11:15:00Z,29.2533,-90.6633,1.3,8.63,1111122 
LUMCON,ioos:station:LUMCON:101:1,2016-05-03T11:30:00Z,29.2533,-90.6633,1.3,8.73,1111122 
LUMCON,ioos:station:LUMCON:101:1,2016-05-03T11:45:00Z,29.2533,-90.6633,1.29,8.62,1111122 
LUMCON,ioos:station:LUMCON:101:1,2016-05-03T12:00:00Z,29.2533,-90.6633,1.3,8.62,1111122 
LUMCON,ioos:station:LUMCON:101:1,2016-05-03T12:15:00Z,29.2533,-90.6633,1.3,8.66,1111122 
LUMCON,ioos:station:LUMCON:101:1,2016-05-03T12:30:00Z,29.2533,-90.6633,1.29,8.67,1111122 
LUMCON,ioos:station:LUMCON:101:1,2016-05-03T12:45:00Z,29.2533,-90.6633,1.28,8.53,1111122 
LUMCON,ioos:station:LUMCON:101:1,2016-05-03T13:00:00Z,29.2533,-90.6633,1.28,8.51,1111122 
LUMCON,ioos:station:LUMCON:101:1,2016-05-03T13:15:00Z,29.2533,-90.6633,1.29,8.5,1111122 
LUMCON,ioos:station:LUMCON:101:1,2016-05-03T13:30:00Z,29.2533,-90.6633,1.3,8.49,1111122 
LUMCON,ioos:station:LUMCON:101:1,2016-05-03T13:45:00Z,29.2533,-90.6633,1.31,8.46,1111122 
LUMCON,ioos:station:LUMCON:101:1,2016-05-03T14:00:00Z,29.2533,-90.6633,1.31,8.47,1111122 
LUMCON,ioos:station:LUMCON:101:1,2016-05-03T14:15:00Z,29.2533,-90.6633,1.32,8.51,1111122 
LUMCON,ioos:station:LUMCON:101:1,2016-05-03T14:30:00Z,29.2533,-90.6633,1.32,8.79,1111122 
LUMCON,ioos:station:LUMCON:101:1,2016-05-03T14:45:00Z,29.2533,-90.6633,1.32,8.86,1111122 
LUMCON,ioos:station:LUMCON:101:1,2016-05-03T15:00:00Z,29.2533,-90.6633,1.33,8.9,1111122 
LUMCON,ioos:station:LUMCON:101:1,2016-05-03T15:15:00Z,29.2533,-90.6633,1.33,8.83,1111122 
LUMCON,ioos:station:LUMCON:101:1,2016-05-03T15:30:00Z,29.2533,-90.6633,1.33,8.82,1111122 
LUMCON,ioos:station:LUMCON:101:1,2016-05-03T15:45:00Z,29.2533,-90.6633,1.34,8.79,1111122 
LUMCON,ioos:station:LUMCON:101:1,2016-05-03T16:00:00Z,29.2533,-90.6633,1.34,8.9,1111122 
LUMCON,ioos:station:LUMCON:101:1,2016-05-03T16:15:00Z,29.2533,-90.6633,1.33,8.89,1111122 
LUMCON,ioos:station:LUMCON:101:1,2016-05-03T16:30:00Z,29.2533,-90.6633,1.33,8.86,1111122 
LUMCON,ioos:station:LUMCON:101:1,2016-05-03T16:45:00Z,29.2533,-90.6633,1.32,8.84,1111122 
LUMCON,ioos:station:LUMCON:101:1,2016-05-03T17:00:00Z,29.2533,-90.6633,1.31,8.78,1111122 
LUMCON,ioos:station:LUMCON:101:1,2016-05-03T17:15:00Z,29.2533,-90.6633,1.3,8.37,1111122 
LUMCON,ioos:station:LUMCON:101:1,2016-05-03T17:30:00Z,29.2533,-90.6633,1.3,8.32,1111122 
LUMCON,ioos:station:LUMCON:101:1,2016-05-03T17:45:00Z,29.2533,-90.6633,1.29,8.3,1111122 